Sault Ste Marie, MI

1:24 PM EDT on July 20, 2017 (GMT -0400)
Sault Ste Marie Municipal / Sanderson Field

Weather History for KANJ - August, 2014

Change the Weather History Date:

Saturday, August 9, 2014

  Actual Average Record
Temperature  
Mean Temperature 71 °F 66 °F  
Max Temperature 85 °F 76 °F 93 °F (1914)
Min Temperature 56 °F 55 °F 41 °F (1994)
Degree Days  
Heating Degree Days 0 2  
Month to date heating degree days 3 18  
Since 1 June heating degree days 223 267  
Since 1 July heating degree days 114 87  
Cooling Degree Days 6 3  
Month to date cooling degree days 13 27  
Year to date cooling degree days 73 140  
Since 1 June cooling degree days 71 135  
Growing Degree Days 20 (Base 50)    
Moisture  
Dew Point 54 °F    
Average Humidity 61    
Maximum Humidity 93    
Minimum Humidity 29    
Precipitation  
Precipitation 0.00 in 0.11 in 1.69 in (1959)
Month to date precipitation 0.01 0.92  
Year to date precipitation 16.45 16.92  
Sea Level Pressure  
Sea Level Pressure 30.14 in    
Wind  
Wind Speed 2 mph (WNW)    
Max Wind Speed 13 mph    
Max Gust Speed 19 mph    
Visibility 10 miles    
Events      
T = Trace of Precipitation, MM = Missing Value Source: NWS Daily Summary

Daily Weather History Graph

Daily Weather History Graph

Search for Another Location

Airport or City:

Trip Planner

Search our weather history database for the weather conditions in past years. The results will help you decide how hot, cold, wet, or windy it might be!

Date:

Astronomy

Aug. 09, 2014 Rise Set
Actual Time 6:28 AM EDT 8:56 PM EDT
Civil Twilight 5:54 AM EDT 9:30 PM EDT
Nautical Twilight 5:12 AM EDT 10:12 PM EDT
Astronomical Twilight 4:23 AM EDT 11:00 PM EDT
Moon 7:55 PM EDT (8/9) 5:07 AM EDT (8/9)
Length of Visible Light 15h 35m
Length of Day
14h 28m
Waxing Gibbous, 98% of the Moon is Illuminated
Aug 9
Waxing Gibbous
Aug 10
Full
Aug 17
Last Quarter
Aug 25
New
Sep 2
First Quarter

Hourly Weather History & Observations

Time (EDT) Temp. Heat Index Dew Point Humidity Pressure Visibility Wind Dir Wind Speed Gust Speed Precip Events Conditions
1:55 AM 61.0 °F - 55.0 °F 81% 30.14 in 9.0 mi Calm Calm - N/A   Clear
2:55 AM 59.0 °F - 54.0 °F 83% 30.14 in 10.0 mi Calm Calm - N/A   Clear
3:55 AM 57.0 °F - 53.1 °F 87% 30.14 in 10.0 mi ENE 3.5 mph - N/A   Clear
4:55 AM 57.9 °F - 54.0 °F 87% 30.14 in 10.0 mi NE 3.5 mph - N/A   Clear
5:55 AM 57.0 °F - 53.1 °F 87% 30.14 in 8.0 mi Calm Calm - N/A   Clear
6:55 AM 55.9 °F - 53.1 °F 90% 30.16 in 7.0 mi Calm Calm - N/A   Clear
7:12 AM 57.0 °F - 54.0 °F 89% 30.18 in 8.0 mi Calm Calm - N/A   Partly Cloudy
7:55 AM 60.1 °F - 55.0 °F 83% 30.18 in 10.0 mi Calm Calm - N/A   Clear
8:55 AM 64.9 °F - 55.9 °F 73% 30.18 in 10.0 mi Calm Calm - N/A   Clear
9:55 AM 71.1 °F - 57.9 °F 63% 30.18 in 8.0 mi Calm Calm - N/A   Clear
10:55 AM 75.9 °F - 55.9 °F 50% 30.17 in 10.0 mi Calm Calm - N/A   Clear
11:55 AM 79.0 °F - 54.0 °F 42% 30.18 in 10.0 mi Calm Calm - N/A   Clear
1:55 PM 82.9 °F - 52.0 °F 34% 30.14 in 10.0 mi Calm Calm - N/A   Clear
2:55 PM 82.9 °F 81.8 °F 53.1 °F 36% 30.13 in 10.0 mi WNW 5.8 mph - N/A   Clear
3:55 PM 84.0 °F - 52.0 °F 33% 30.12 in 10.0 mi WSW 8.1 mph - N/A   Clear
4:55 PM 84.0 °F - 48.9 °F 29% 30.12 in 10.0 mi WNW 5.8 mph - N/A   Clear
5:55 PM 84.0 °F - 50.0 °F 31% 30.12 in 10.0 mi WNW 5.8 mph - N/A   Clear
6:55 PM 82.0 °F - 51.1 °F 34% 30.11 in 10.0 mi NW 5.8 mph - N/A   Clear
7:55 PM 79.0 °F - 53.1 °F 40% 30.11 in 10.0 mi WNW 3.5 mph - N/A   Clear
8:55 PM 71.1 °F - 55.9 °F 59% 30.12 in 10.0 mi WSW 4.6 mph - N/A   Clear
9:55 PM 70.0 °F - 54.0 °F 57% 30.13 in 10.0 mi Calm Calm - N/A   Clear
10:55 PM 66.0 °F - 57.0 °F 73% 30.14 in 10.0 mi West 3.5 mph - N/A   Clear
11:55 PM 63.0 °F - 57.0 °F 81% 30.13 in 10.0 mi Calm Calm - N/A   Clear